Tracking 21076 objects as of 9-Aug-2020
HD Live streaming from Space Station
objects crossing your sky now
Track the most recent launched group of Starlink satellites

COSMOS 621

Track COSMOS 621 now!
10-day predictions
COSMOS 621 is classified as:


NORAD ID: 6989
Int'l Code: 1973-104E
Perigee: 1,412.8 km
Apogee: 1,491.8 km
Inclination: 74.0 °
Period: 114.8 minutes
Semi major axis: 7823 km
RCS: 0.7035 m2 (medium)
Launch date: December 19, 1973
Source: Commonwealth of Independent States (former USSR) (CIS)
Launch site: PLESETSK MISSILE AND SPACE COMPLEX (PKMTR)
aabbcc
Your satellite tracking list
Your tracking list is empty




NASA's NSSDC Master Catalog

Two Line Element Set (TLE):
1  6989U 73104E   20222.19995922 -.00000014  00000-0  16166-4 0  9991
2  6989  74.0285  92.2274 0050490 207.2117 305.8089 12.54634835136345
Source of the keplerian elements: AFSPC